Location: Aix-en-Ergny
(50.5839°N, 1.9996°E)
Time: 01:05:35
(UTC+00:00)

Cosmos 2333 Rocket - Pass Details

Date: 23 October 2019
Orbit: 838 x 863 km, 70.8° (Epoch: 11 November)

Event Time Altitude Azimuth Distance (km) Brightness Sun altitude
Exits shadow 03:39:58 47° 334° (NNW) 1,113 2.7 -27.0°
Drops below altitude 10° 03:44:46 10° 23° (NNE) 2,495 5.1 -26.3°
Sets 03:47:19 0° 29° (NNE) 3,439 6.0 -25.9°
